Retour au catalogue

STARLINK-34529

ActifCommunicationsSSO
NORAD 64936·PAYLOAD·🇺🇸 United States

Lancé Jul 26, 2025 depuis Vandenberg Space Force Base

Loading…

Prochains Passages (prochaines 24 heures)

TLE

FraisSource: CelesTrak SupGP

Époque: Sep 15, 2026, 03:00 UTC

1 64936C 25158E   26258.12548611  .00006176  00000+0  19166-3 0  2583
2 64936  97.2846 116.4601 0001622  92.2457 113.9625 15.33443253    16

Suivez STARLINK-34529 en temps réel avec AllMySat

Download on the App Store